Location: Narrabri
(30.3170°S, 149.7830°E)
Time: 09:16:42
(UTC+11:00)

Tiangong 1 - Pass Details

Date: 09 October 2017
Orbit: 293 x 320 km, 42.8° (Epoch: 18 October)

Event Time Altitude Azimuth Distance (km) Brightness Sun altitude
Exits shadow 04:39:13 17° 92° (E) 858 3.6 -23.8°
Drops below altitude 10° 04:40:07 10° 104° (ESE) 1,185 4.6 -23.7°
Sets 04:42:13 0° 114° (ESE) 2,023 6.2 -23.2°
